Location: Cormont
(50.5693°N, 1.7416°E)
Time: 08:41:05
(UTC+00:00)

STARLINK-24 - Pass Details

Date: 21 October 2019
Orbit: 550 x 553 km, 53.0° (Epoch: 14 November)

Event Time Altitude Azimuth Distance (km) Brightness Sun altitude
Rises 19:04:39 0° 285° (WNW) 2,724 8.7 -22.1°
Reaches altitude 10° 19:06:54 10° 287° (WNW) 1,829 7.4 -22.4°
Enters shadow 19:10:58 70° 4° (N) 590 3.6 -23.1°
